EW7397 Weather Reports


Display with metric or nautical units.
time (UTC)temp
F
wind
direction
speed
MPH
gust
MPH
rain 1hr
in
rain 24hr
in
rain mn
in
humidity
%
barometer
mb
20260507153005 69 263 3.0 7.0 0.00 0.05 0.05 62 1012.3
20260507152711 69 263 3.0 6.0 0.00 0.05 0.05 62 1012.4
20260507152005 68 268 2.0 6.0 0.00 0.05 0.05 61 1012.2
20260507151503 68 303 2.0 5.0 0.00 0.05 0.05 61 1012.4
20260507151003 68 298 2.0 5.0 0.00 0.05 0.05 64 1012.3
20260507150712 68 289 2.0 6.0 0.00 0.05 0.05 64 1012.3
20260507150005 68 260 2.0 6.0 0.00 0.05 0.05 65 1012.4
20260507145505 68 254 3.0 6.0 0.00 0.05 0.05 65 1012.3
20260507145003 68 233 4.0 7.0 0.00 0.05 0.05 67 1012.4
20260507144503 67 228 3.0 7.0 0.00 0.05 0.05 65 1012.4
20260507144005 67 247 3.0 9.0 0.00 0.05 0.05 64 1012.5
20260507143503 67 252 3.0 9.0 0.00 0.05 0.05 65 1012.4
20260507143003 67 243 3.0 6.0 0.00 0.05 0.05 67 1012.5
20260507142505 67 240 4.0 6.0 0.00 0.05 0.05 68 1012.4
20260507142003 67 231 4.0 11.0 0.00 0.05 0.05 69 1012.5
20260507141503 67 259 3.0 11.0 0.00 0.05 0.05 70 1012.5
20260507141006 66 316 3.0 8.0 0.00 0.05 0.05 71 1012.6
20260507140503 66 253 3.0 8.0 0.00 0.05 0.05 72 1012.6
20260507140005 66 222 3.0 6.0 0.00 0.05 0.05 72 1012.7
20260507135505 65 225 3.0 6.0 0.00 0.05 0.05 73 1012.8
20260507135003 65 241 3.0 6.0 0.00 0.05 0.05 72 1012.8
20260507134505 65 238 4.0 8.0 0.00 0.05 0.05 71 1013.0
20260507134003 65 233 3.0 9.0 0.00 0.05 0.05 70 1012.9
20260507133505 65 236 2.0 9.0 0.00 0.05 0.05 72 1013.0
20260507133211 65 235 2.0 9.0 0.00 0.05 0.05 74 1013.2
20260507132503 65 253 3.0 5.0 0.00 0.05 0.05 76 1013.2
20260507132212 65 269 3.0 8.0 0.00 0.05 0.05 75 1013.4
20260507131503 65 265 3.0 8.0 0.00 0.05 0.05 74 1013.4
20260507131005 65 238 3.0 6.0 0.01 0.05 0.05 73 1013.5
20260507130503 65 239 3.0 10.0 0.01 0.05 0.05 73 1013.6
20260507130005 65 243 2.0 10.0 0.01 0.05 0.05 73 1013.6
20260507125503 65 214 2.0 5.0 0.01 0.05 0.05 76 1013.6
20260507125212 64 245 2.0 5.0 0.01 0.05 0.05 76 1013.6
20260507124503 64 265 2.0 7.0 0.01 0.05 0.05 75 1013.6
20260507124005 64 265 3.0 6.0 0.01 0.05 0.05 77 1013.6
20260507123503 64 245 4.0 6.0 0.01 0.05 0.05 79 1013.7
20260507123003 64 233 4.0 6.0 0.01 0.05 0.05 80 1013.6
20260507122503 64 250 3.0 7.0 0.01 0.05 0.05 80 1013.7
20260507122004 64 257 3.0 7.0 0.01 0.05 0.05 81 1013.7
20260507121505 64 231 3.0 8.0 0.01 0.05 0.05 81 1013.7
20260507121003 64 232 3.0 8.0 0.00 0.04 0.04 79 1013.7
20260507120503 64 253 3.0 6.0 0.00 0.04 0.04 79 1014.0
20260507120006 64 162 3.0 9.0 0.00 0.04 0.04 79 1014.0
20260507115503 64 158 4.0 9.0 0.00 0.04 0.04 78 1013.9
20260507115005 65 236 4.0 10.0 0.00 0.04 0.04 77 1014.0
20260507114503 65 240 3.0 10.0 0.00 0.04 0.04 78 1013.9
20260507114211 65 254 3.0 9.0 0.00 0.04 0.04 77 1013.9
20260507113712 64 263 3.0 7.0 0.00 0.04 0.04 78 1013.7
20260507113004 64 244 5.0 9.0 0.00 0.04 0.04 77 1013.6
20260507112505 64 248 5.0 10.0 0.00 0.04 0.04 76 1013.8
20260507112003 64 244 4.0 10.0 0.00 0.04 0.04 77 1013.9
20260507111712 64 239 4.0 10.0 0.00 0.04 0.04 77 1013.9
20260507111003 64 148 3.0 9.0 0.00 0.04 0.04 80 1014.0
20260507110505 64 129 3.0 8.0 0.00 0.04 0.04 80 1014.0
20260507110004 64 121 2.0 8.0 0.00 0.04 0.04 82 1014.1
20260507105505 63 134 3.0 8.0 0.00 0.04 0.04 81 1014.1
20260507105210 63 75 3.0 6.0 0.00 0.04 0.04 84 1014.1
20260507104506 63 97 2.0 8.0 0.00 0.04 0.04 84 1014.1
20260507104003 62 105 2.0 8.0 0.00 0.04 0.04 85 1014.1
20260507103505 62 92 2.0 4.0 0.00 0.04 0.04 85 1014.1
20260507103005 62 178 2.0 5.0 0.00 0.04 0.04 85 1014.1
20260507102503 62 193 2.0 5.0 0.00 0.06 0.04 85 1014.1
20260507102003 61 130 2.0 4.0 0.00 0.06 0.04 84 1014.2
20260507101506 61 140 2.0 4.0 0.00 0.06 0.04 84 1014.1
20260507101003 61 167 2.0 5.0 0.00 0.06 0.04 85 1014.2
20260507100712 61 177 1.0 5.0 0.00 0.06 0.04 85 1014.2
20260507100005 61 150 1.0 4.0 0.00 0.06 0.04 85 1014.3
20260507095503 61 95 1.0 4.0 0.00 0.06 0.04 84 1014.3
20260507095005 60 94 1.0 4.0 0.00 0.06 0.04 86 1014.2
20260507094504 60 79 1.0 2.0 0.00 0.06 0.04 86 1014.3
20260507094005 60 42 1.0 2.0 0.00 0.06 0.04 88 1014.3
20260507093503 60 21 1.0 2.0 0.00 0.06 0.04 87 1014.3
20260507093005 60 348 1.0 2.0 0.00 0.06 0.04 87 1014.3
20260507092503 59 348 1.0 3.0 0.00 0.06 0.04 88 1014.3
20260507092003 59 348 1.0 3.0 0.00 0.06 0.04 88 1014.3
20260507091505 59 348 1.0 2.0 0.00 0.06 0.04 88 1014.3
20260507091211 59 348 0.0 2.0 0.00 0.06 0.04 89 1014.3
20260507090710 59 347 1.0 2.0 0.00 0.06 0.04 90 1014.3
20260507090213 58 346 1.0 2.0 0.00 0.06 0.04 90 1014.2
20260507085503 58 345 0.0 2.0 0.00 0.06 0.04 90 1014.3
20260507085003 58 344 0.0 1.0 0.00 0.06 0.04 90 1014.2
20260507084503 58 344 0.0 2.0 0.00 0.06 0.04 91 1014.2
20260507084003 58 344 0.0 2.0 0.01 0.06 0.04 91 1014.0
20260507083505 57 343 0.0 1.0 0.01 0.06 0.04 91 1014.1
20260507083004 57 343 0.0 1.0 0.01 0.06 0.04 91 1014.1
20260507082505 57 343 0.0 2.0 0.01 0.06 0.04 91 1014.0
20260507082003 57 343 0.0 2.0 0.01 0.06 0.04 91 1013.9
20260507081503 57 343 0.0 2.0 0.01 0.06 0.04 91 1014.0
20260507081005 57 342 0.0 1.0 0.01 0.06 0.04 91 1014.1
20260507080710 57 342 0.0 1.0 0.01 0.06 0.04 91 1014.2
20260507080004 57 342 0.0 1.0 0.01 0.06 0.04 91 1014.1
20260507075505 57 342 0.0 2.0 0.01 0.06 0.04 91 1014.1
20260507075003 57 344 0.0 2.0 0.01 0.06 0.04 91 1014.1
20260507074712 57 344 0.0 2.0 0.01 0.06 0.04 91 1014.0
20260507074003 57 345 1.0 1.0 0.00 0.06 0.03 91 1013.7
20260507073505 57 345 1.0 2.0 0.00 0.06 0.03 91 1013.8
20260507073211 56 344 1.0 2.0 0.00 0.06 0.03 91 1013.7
20260507072503 56 344 0.0 2.0 0.00 0.06 0.03 91 1013.5
20260507072212 56 344 0.0 2.0 0.00 0.06 0.03 92 1013.7
20260507071504 56 0 0.0 0.0 0.00 0.06 0.03 91 1013.7
20260507071003 56 0 0.0 0.0 0.00 0.06 0.03 91 1013.7
20260507070505 56 343 0.0 1.0 0.00 0.06 0.03 91 1013.7
20260507070009 56 343 0.0 1.0 0.00 0.06 0.03 91 1013.6
20260507065503 56 0 0.0 0.0 0.00 0.06 0.03 91 1013.7
20260507065005 56 343 0.0 1.0 0.00 0.06 0.03 91 1013.6
20260507064503 55 343 0.0 1.0 0.00 0.06 0.03 92 1013.5
20260507064005 55 343 0.0 1.0 0.00 0.06 0.03 91 1013.6
20260507063503 55 343 0.0 1.0 0.00 0.06 0.03 91 1013.5
20260507063005 55 343 0.0 1.0 0.00 0.06 0.03 92 1013.4
20260507062710 55 343 0.0 1.0 0.00 0.06 0.03 92 1013.4
20260507062210 55 343 0.0 2.0 0.00 0.06 0.03 92 1013.3
20260507061505 54 343 0.0 2.0 0.00 0.06 0.03 93 1013.3
20260507061211 54 340 0.0 2.0 0.00 0.06 0.03 93 1013.3
20260507060503 54 328 0.0 2.0 0.00 0.06 0.03 93 1013.2
20260507060005 54 0 0.0 0.0 0.00 0.06 0.03 93 1013.2
20260507055503 54 0 0.0 0.0 0.00 0.06 0.03 93 1013.2
20260507055005 54 0 0.0 0.0 0.00 0.06 0.03 93 1013.2
20260507054503 54 0 0.0 0.0 0.00 0.06 0.03 93 1013.4
20260507053503 53 0 0.0 0.0 0.00 0.06 0.03 93 1013.2
20260507053005 53 0 0.0 0.0 0.00 0.06 0.03 93 1013.2
20260507052710 53 0 0.0 0.0 0.00 0.06 0.03 93 1013.2
20260507052003 53 316 0.0 1.0 0.00 0.06 0.03 93 1013.1
20260507051505 53 316 0.0 1.0 0.00 0.06 0.03 93 1013.2
20260507051003 53 316 0.0 1.0 0.00 0.06 0.03 93 1013.1
20260507050505 52 316 0.0 1.0 0.01 0.06 0.03 93 1013.1
20260507050211 52 316 0.0 1.0 0.01 0.06 0.03 93 1013.1
20260507045503 52 0 0.0 0.0 0.01 0.06 0.03 92 1013.0
20260507045005 52 0 0.0 0.0 0.01 0.06 0.03 92 1012.8
20260507044503 52 316 0.0 1.0 0.01 0.06 0.03 92 1012.7
20260507044005 52 316 0.0 1.0 0.01 0.06 0.03 93 1012.6
20260507043503 52 316 0.0 1.0 0.01 0.06 0.03 93 1012.5
20260507043003 52 316 0.0 2.0 0.01 0.06 0.03 93 1012.5
20260507042505 52 316 0.0 2.0 0.01 0.06 0.03 92 1012.4
20260507042003 52 316 0.0 1.0 0.01 0.06 0.03 92 1012.4
20260507041503 52 316 0.0 2.0 0.01 0.06 0.03 92 1012.4
20260507041003 52 316 0.0 2.0 0.01 0.06 0.03 92 1012.3
20260507040503 52 316 0.0 1.0 0.00 0.05 0.02 92 1012.3
20260507040006 52 0 0.0 0.0 0.00 0.05 0.02 91 1012.3
20260507035711 52 0 0.0 0.0 0.00 0.05 0.02 91 1012.3
20260507035212 52 0 0.0 0.0 0.00 0.05 0.02 91 1012.4
20260507034503 52 0 0.0 0.0 0.00 0.05 0.02 91 1012.4
20260507034005 52 316 0.0 1.0 0.00 0.05 0.02 91 1012.3
20260507033503 52 316 0.0 2.0 0.00 0.05 0.02 92 1012.4
20260507033003 52 316 0.0 2.0 0.00 0.05 0.02 91 1012.3
20260507032505 52 316 0.0 1.0 0.00 0.05 0.02 91 1012.3
20260507032211 52 0 0.0 0.0 0.00 0.05 0.02 91 1012.3
20260507031503 52 316 0.0 2.0 0.00 0.05 0.02 91 1012.2
20260507031005 52 316 1.0 2.0 0.00 0.05 0.02 91 1012.2
20260507030710 52 316 1.0 2.0 0.00 0.05 0.02 91 1012.3
20260507030006 52 316 0.0 2.0 0.00 0.05 0.02 90 1012.2
20260507025503 52 316 0.0 2.0 0.00 0.05 0.02 90 1012.1
20260507025005 52 316 0.0 2.0 0.00 0.05 0.02 90 1011.9
20260507024503 52 316 0.0 2.0 0.00 0.05 0.02 90 1011.9
20260507024003 52 316 0.0 2.0 0.00 0.05 0.02 91 1012.0
20260507023505 52 316 0.0 2.0 0.00 0.05 0.02 91 1012.1
20260507023004 52 0 0.0 0.0 0.00 0.05 0.02 91 1012.0
20260507022503 52 316 0.0 1.0 0.00 0.05 0.02 91 1012.1
20260507022005 52 316 0.0 1.0 0.00 0.05 0.02 90 1012.1
20260507021503 52 316 0.0 1.0 0.00 0.05 0.02 90 1012.1
20260507021005 52 0 0.0 0.0 0.00 0.05 0.02 91 1012.1
20260507020503 52 0 0.0 0.0 0.00 0.05 0.02 91 1012.1
20260507020005 52 316 0.0 1.0 0.00 0.05 0.02 90 1012.1
20260507015503 52 316 0.0 1.0 0.00 0.05 0.02 89 1012.1
20260507015005 53 316 0.0 1.0 0.00 0.05 0.02 89 1012.0
20260507014503 53 316 0.0 1.0 0.00 0.05 0.02 89 1012.1
20260507014003 53 316 0.0 2.0 0.00 0.05 0.02 89 1012.0
20260507013505 53 316 0.0 2.0 0.00 0.05 0.02 89 1012.1
20260507013003 53 316 0.0 2.0 0.00 0.05 0.02 89 1012.0
20260507012503 54 0 0.0 0.0 0.00 0.05 0.02 88 1012.1
20260507012005 54 0 0.0 0.0 0.00 0.05 0.02 88 1012.1
20260507011503 54 314 1.0 3.0 0.00 0.05 0.02 89 1012.0
20260507011005 54 307 1.0 3.0 0.01 0.05 0.02 89 1012.1
20260507010503 54 303 0.0 3.0 0.01 0.05 0.02 89 1012.0
20260507010006 55 303 0.0 2.0 0.02 0.05 0.02 89 1011.9
20260507005503 55 303 0.0 1.0 0.02 0.05 0.02 88 1012.0
20260507005213 55 0 0.0 0.0 0.02 0.05 0.02 88 1012.0
20260507004503 55 303 1.0 2.0 0.02 0.05 0.02 88 1012.2
20260507004210 56 303 1.0 2.0 0.02 0.05 0.02 88 1012.1
20260507003505 56 288 1.0 3.0 0.02 0.05 0.02 89 1012.3
20260507003210 56 238 1.0 3.0 0.02 0.05 0.02 89 1012.2
20260507002503 56 105 1.0 2.0 0.02 0.05 0.02 88 1012.3
20260507002003 56 129 0.0 2.0 0.02 0.05 0.02 88 1012.3
20260507001504 56 132 0.0 2.0 0.02 0.05 0.02 88 1012.3
20260507001005 56 138 0.0 1.0 0.02 0.04 0.02 87 1012.4
20260507000503 57 138 0.0 1.0 0.02 0.04 0.02 88 1012.5
20260507000004 57 138 0.0 2.0 0.01 0.03 0.01 87 1012.6
20260506235505 57 138 0.0 3.0 0.01 0.03 0.01 87 1012.6
20260506235003 57 137 1.0 3.0 0.01 0.03 0.01 87 1012.6
20260506234712 57 136 1.0 3.0 0.01 0.03 0.01 87 1012.7
20260506234003 57 149 1.0 4.0 0.01 0.03 0.01 87 1012.6
20260506233503 57 176 0.0 4.0 0.01 0.03 0.01 86 1012.5
20260506233005 57 217 0.0 3.0 0.00 0.02 0.00 87 1012.6
20260506232503 57 246 1.0 2.0 0.00 0.02 0.00 87 1012.5
20260506232005 57 246 1.0 2.0 0.00 0.02 0.00 87 1012.3
20260506231503 57 250 1.0 3.0 0.00 0.02 0.00 87 1012.5
20260506231005 57 274 0.0 3.0 0.00 0.02 0.00 87 1012.4
20260506230508 57 311 0.0 2.0 0.00 0.02 0.00 88 1012.4
20260506230006 57 312 1.0 3.0 0.00 0.02 0.00 88 1012.3
20260506225503 57 316 1.0 3.0 0.00 0.02 0.00 87 1012.2
20260506225005 57 323 2.0 3.0 0.00 0.02 0.00 88 1012.3
20260506224710 57 314 2.0 4.0 0.00 0.02 0.00 88 1012.2
20260506224003 57 322 1.0 4.0 0.00 0.02 0.00 88 1012.3
20260506223505 57 331 1.0 3.0 0.00 0.02 0.00 88 1012.2
20260506223003 57 331 1.0 3.0 0.00 0.02 0.00 87 1012.1
20260506222505 57 332 1.0 3.0 0.00 0.02 0.00 87 1012.0
20260506222003 57 332 1.0 3.0 0.00 0.02 0.00 88 1012.0
20260506221504 57 332 1.0 3.0 0.00 0.02 0.00 88 1011.9
20260506221005 57 332 1.0 3.0 0.00 0.02 0.00 87 1011.9
20260506220503 57 332 1.0 3.0 0.00 0.02 0.00 87 1011.9
20260506220100 57 332 1.0 3.0 0.00 0.02 0.00 88 1011.9
20260506215503 57 332 1.0 2.0 0.00 0.02 0.02 87 1011.7
20260506215006 57 332 1.0 2.0 0.00 0.02 0.02 88 1011.6
20260506214710 57 332 0.0 2.0 0.00 0.02 0.02 87 1011.6
20260506214005 57 333 0.0 2.0 0.00 0.02 0.02 88 1011.6
20260506213503 57 333 0.0 2.0 0.00 0.02 0.02 87 1011.8
20260506213210 57 333 1.0 2.0 0.00 0.02 0.02 88 1011.8
20260506212505 57 322 1.0 3.0 0.00 0.02 0.02 88 1011.8
20260506212004 56 322 1.0 5.0 0.00 0.02 0.02 88 1011.6
20260506211505 56 319 1.0 5.0 0.00 0.02 0.02 88 1011.6
20260506211003 56 314 0.0 2.0 0.00 0.02 0.02 88 1011.8
20260506210505 56 314 0.0 1.0 0.00 0.02 0.02 86 1011.6
20260506210004 56 314 0.0 2.0 0.00 0.02 0.02 86 1011.5
20260506205712 56 314 0.0 2.0 0.00 0.02 0.02 86 1011.5
20260506205003 57 314 0.0 3.0 0.00 0.02 0.02 86 1011.4
20260506204503 57 314 0.0 3.0 0.00 0.02 0.02 86 1011.4
20260506204005 57 314 0.0 2.0 0.00 0.02 0.02 86 1011.2
20260506203503 57 314 1.0 2.0 0.00 0.02 0.02 85 1011.1
20260506203211 57 314 1.0 2.0 0.00 0.02 0.02 86 1011.2
20260506202505 57 314 0.0 3.0 0.00 0.02 0.02 86 1011.3
20260506202003 57 315 0.0 3.0 0.00 0.02 0.02 86 1011.3
20260506201710 57 315 0.0 2.0 0.00 0.02 0.02 85 1011.3
20260506201005 57 315 0.0 2.0 0.00 0.02 0.02 86 1011.3
20260506200503 57 315 0.0 2.0 0.00 0.02 0.02 85 1011.2
20260506200213 57 315 0.0 2.0 0.00 0.02 0.02 85 1011.3
20260506195503 57 315 0.0 2.0 0.00 0.02 0.02 85 1011.3
20260506195003 57 0 0.0 0.0 0.00 0.02 0.02 85 1011.2
20260506194505 57 315 0.0 1.0 0.00 0.02 0.02 84 1011.1
20260506194003 58 315 0.0 1.0 0.00 0.02 0.02 84 1011.2
20260506193503 58 315 0.0 3.0 0.00 0.02 0.02 84 1011.2
20260506193005 58 315 1.0 3.0 0.00 0.02 0.02 83 1011.3
20260506192710 58 315 0.0 2.0 0.00 0.02 0.02 83 1011.2
20260506192003 58 315 0.0 2.0 0.00 0.02 0.02 83 1011.3
20260506191505 58 315 0.0 2.0 0.00 0.02 0.02 82 1011.0
20260506191210 58 0 0.0 0.0 0.00 0.02 0.02 82 1010.8
20260506190712 59 315 0.0 1.0 0.00 0.02 0.02 81 1010.9
20260506190005 59 315 0.0 1.0 0.00 0.02 0.02 81 1010.9
20260506185505 59 315 1.0 2.0 0.00 0.02 0.02 81 1010.8
20260506185003 59 315 1.0 3.0 0.00 0.02 0.02 81 1010.6
20260506184503 60 315 1.0 3.0 0.00 0.02 0.02 81 1010.6
20260506184005 60 321 1.0 4.0 0.00 0.02 0.02 81 1010.7
20260506183503 60 326 0.0 4.0 0.00 0.02 0.02 81 1010.6
20260506183004 60 342 0.0 3.0 0.00 0.02 0.02 80 1010.5
20260506182503 61 342 0.0 3.0 0.00 0.02 0.02 80 1010.5
20260506182210 61 342 1.0 2.0 0.00 0.02 0.02 80 1010.4
20260506181505 61 342 1.0 3.0 0.00 0.02 0.02 80 1010.3
20260506181003 62 342 1.0 3.0 0.00 0.02 0.02 80 1010.3
20260506180503 62 342 1.0 3.0 0.00 0.02 0.02 79 1010.3
20260506180006 62 342 2.0 3.0 0.00 0.02 0.02 79 1010.3
20260506175503 62 335 2.0 4.0 0.00 0.02 0.02 78 1010.3
20260506175003 63 303 1.0 4.0 0.00 0.02 0.02 77 1010.4
20260506174712 63 276 1.0 5.0 0.00 0.02 0.02 77 1010.3
20260506174003 64 273 2.0 5.0 0.00 0.02 0.02 76 1010.3
20260506173505 64 281 2.0 7.0 0.00 0.02 0.02 75 1010.2
20260506173003 64 262 1.0 7.0 0.00 0.02 0.02 74 1010.3
20260506172505 64 250 1.0 3.0 0.00 0.02 0.02 74 1010.1
20260506172003 64 243 2.0 4.0 0.00 0.02 0.02 73 1010.2
20260506171505 65 248 2.0 5.0 0.00 0.02 0.02 73 1010.2
20260506171003 65 256 1.0 5.0 0.00 0.02 0.02 73 1010.2
20260506170503 65 241 1.0 5.0 0.00 0.02 0.02 74 1010.2
20260506170005 65 244 2.0 4.0 0.00 0.02 0.02 74 1010.3
20260506165710 65 238 2.0 8.0 0.00 0.02 0.02 73 1010.1
20260506165003 65 250 1.0 8.0 0.00 0.02 0.02 74 1010.2
20260506164505 65 280 1.0 5.0 0.00 0.02 0.02 74 1010.3
20260506164003 65 273 2.0 5.0 0.00 0.02 0.02 74 1010.3
20260506163503 65 307 3.0 7.0 0.00 0.02 0.02 75 1010.3
20260506163005 65 255 3.0 9.0 0.00 0.02 0.02 74 1010.3
20260506162503 65 246 2.0 9.0 0.00 0.02 0.02 76 1010.4
20260506162005 64 267 1.0 8.0 0.00 0.02 0.02 76 1010.3
20260506161711 64 293 1.0 4.0 0.00 0.02 0.02 79 1010.3
20260506161003 64 328 1.0 2.0 0.00 0.02 0.02 82 1010.4
20260506160505 64 322 1.0 3.0 0.00 0.02 0.02 83 1010.3
20260506160004 64 319 2.0 3.0 0.00 0.02 0.02 83 1010.3
20260506155503 64 315 2.0 4.0 0.00 0.02 0.02 82 1010.5
20260506155005 64 315 1.0 4.0 0.00 0.02 0.02 82 1010.5
20260506154503 64 315 0.0 3.0 0.00 0.02 0.02 82 1010.5
20260506154003 64 315 0.0 2.0 0.00 0.02 0.02 81 1010.7
20260506153503 64 315 0.0 2.0 0.00 0.02 0.02 81 1010.6
20260506153210 64 315 1.0 2.0 0.00 0.02 0.02 81 1010.6